Location: Buckenweiler
(49.0667°N, 10.2500°E)
Time: 19:12:27
(UTC+00:00)

NOAA 12 - Pass Details

Date: 16 April 2026
Orbit: 792 x 813 km, 98.6° (Epoch: 12 May)

Event Time Altitude Azimuth Distance (km) Brightness Sun altitude
Rises 03:41:17 0° 22° (NNE) 3,331 8.1 -7.7°
Reaches altitude 10° 03:43:53 10° 32° (NNE) 2,392 7.5 -7.3°
Maximum altitude 03:48:36 33° 95° (E) 1,337 6.0 -6.6°
Drops below altitude 10° 03:53:17 10° 159° (SSE) 2,364 6.5 -5.9°
Sets 03:55:49 0° 169° (SSE) 3,286 7.2 -5.5°
